Location: Étouvelles
(49.5207°N, 3.5808°E)
Time: 23:02:38
(UTC+00:00)

ATLAS 5 CENTAUR R/B - Pass Details

Date: 03 February 2023
Orbit: 460 x 1177 km, 63.3° (Epoch: 01 April)

Event Time Altitude Azimuth Distance (km) Brightness Sun altitude
Rises 18:32:01 0° 301° (WNW) 2,710 5.8 -17.7°
Reaches altitude 10° 18:35:01 10° 326° (NNW) 1,931 4.5 -18.1°
Maximum altitude 18:37:28 15° 1° (N) 1,746 3.8 -18.5°
Enters shadow 18:39:03 13° 23° (NNE) 1,923 3.8 -18.8°
